[Iaude] MPEC T64: 2016 TY10 [a=1.17,e=0.14,i=23.0,H=24.0]

mpec at si.edu mpec at si.edu
Fri Oct 7 12:23:52 EDT 2016


M.P.E.C. 2016-T64                                Issued 2016 Oct. 7, 16:20 UT
 
     The Minor Planet Electronic Circulars contain information on unusual
         minor planets and routine data on comets.  They are published
    on behalf of Division F of the International Astronomical Union by the
          Minor Planet Center, Smithsonian Astrophysical Observatory,
                          Cambridge, MA 02138, U.S.A.

             Prepared using the Tamkin Foundation Computer Network

                              MPC at CFA.HARVARD.EDU
            URL http://www.minorplanetcenter.net/    ISSN 1523-6714


                                   2016 TY10
 
Observations:
     K16T10Y* C2016 10 05.26099 22 49 00.47 +00 25 05.2          21.0 VqET064G96
     K16T10Y  C2016 10 05.26215 22 49 00.51 +00 24 49.4          20.2 VqET064G96
     K16T10Y  C2016 10 05.26331 22 49 00.73 +00 24 33.7          20.6 VqET064G96
     K16T10Y  C2016 10 05.26447 22 49 00.69 +00 24 16.2          20.7 VqET064G96
     K16T10Y  C2016 10 05.28499 22 49 02.52 +00 19 33.9          20.7 VqET064G96
     K16T10Y  C2016 10 05.28696 22 49 02.72 +00 19 06.8          20.5 VqET064G96
     K16T10Y  C2016 10 05.28901 22 49 02.87 +00 18 39.1          20.4 VqET064G96
     K16T10Y  C2016 10 05.29100 22 49 03.01 +00 18 10.7          20.2 VqET064G96
     K16T10Y KC2016 10 06.10246022 50 41.76 -02 49 39.6          20.3 VuET064H21
     K16T10Y KC2016 10 06.10891222 50 42.36 -02 51 09.3          20.6 VuET064H21
     K16T10Y KC2016 10 06.11651422 50 43.07 -02 52 55.4          20.3 VuET064H21
     K16T10Y  C2016 10 06.19718 22 50 52.39 -03 11 31.5          20.4 RoET064926
     K16T10Y  C2016 10 06.20017 22 50 52.60 -03 12 13.3          20.2 RoET064926
     K16T10Y  C2016 10 06.20316 22 50 52.86 -03 12 55.0          20.2 RoET064926
     K16T10Y  C2016 10 06.22858 22 50 55.12 -03 18 50.9          20.5 VqET064G96
     K16T10Y  C2016 10 06.22899 22 50 55.17 -03 18 56.3          20.2 VqET064G96
     K16T10Y  C2016 10 06.22940 22 50 55.20 -03 19 02.4          20.9 VqET064G96
     K16T10Y  C2016 10 06.22981 22 50 55.23 -03 19 08.0          20.5 VqET064G96
     K16T10Y  C2016 10 06.25050 22 50 57.09 -03 23 56.4          20.4 VqET064G96
     K16T10Y  C2016 10 06.25176 22 50 57.22 -03 24 14.3          20.5 VqET064G96
     K16T10Y  C2016 10 06.25301 22 50 57.32 -03 24 31.6          19.8 VqET064G96
     K16T10Y  C2016 10 06.25440 22 50 57.40 -03 24 52.4          20.6 VqET064G96
     K16T10Y  C2016 10 06.25767 22 50 57.76 -03 25 37.2          20.5 VqET064G96
     K16T10Y  C2016 10 06.26196 22 50 58.12 -03 26 36.4          19.6 VqET064G96
     K16T10Y  C2016 10 06.26625 22 50 58.51 -03 27 36.4          20.6 VqET064G96
     K16T10Y  C2016 10 06.27053 22 50 58.94 -03 28 36.4          20.5 VqET064G96
     K16T10Y |C2016 10 07.11076 22 52 44.39 -06 42 58.0          20.5 VuET064807
     K16T10Y |C2016 10 07.11382 22 52 44.67 -06 43 40.8          20.8 VuET064807
     K16T10Y |C2016 10 07.11696 22 52 44.99 -06 44 24.5          20.4 VuET064807
     K16T10Y  C2016 10 07.19073 22 52 55.48 -07 03 06.4          20.7 VqET064G96
     K16T10Y  C2016 10 07.19178 22 52 55.60 -07 03 21.1          20.8 VqET064G96
     K16T10Y  C2016 10 07.19283 22 52 55.71 -07 03 34.8          20.1 VqET064G96
     K16T10Y  C2016 10 07.19392 22 52 55.83 -07 03 50.7          20.1 VqET064G96
     K16T10Y  C2016 10 07.19620 22 52 56.12 -07 04 23.1          20.4 VqET064I52
     K16T10Y  C2016 10 07.20098 22 52 56.44 -07 05 29.5          20.5 VqET064I52
     K16T10Y KC2016 10 07.22810 22 52 59.16 -07 11 48.2                oET064291
     K16T10Y KC2016 10 07.22994 22 52 59.34 -07 12 13.9          19.8 RoET064291
     K16T10Y KC2016 10 07.23182 22 52 59.52 -07 12 40.2          19.2 RoET064291
 
Observer details:
291 LPL/Spacewatch II.  Observer J. V. Scotti.  1.8-m f/2.7 reflector + CCD.
807 Cerro Tololo.  Observers T. Linder, R. Holmes.  0.61-m f/6.5 astrograph
    + CCD.
926 Tenagra II Observatory.  Observers M. Schwartz, P. R. Holvorcem.  Measurer
    M. Schwartz.  0.81-m f/7 Ritchey-Chretien + CCD.
G96 Mt. Lemmon Survey.  Observers R. G. Matheny, G. J. Leonard.  Measurers
    E. J. Christensen, D. C. Fuls, A. R. Gibbs, A. D. Grauer, J. A. Johnson,
    R. A. Kowalski, S. M. Larson, G. J. Leonard, R. G. Matheny, R. L. Seaman,
    F. C. Shelly.  1.5-m reflector + 10K CCD.
H21 Astronomical Research Observatory, Westfield.  Observer R. Holmes.
    Measurers S. Foglia, L. Buzzi, T. Linder, R. Holmes.  0.61-m f/4.5
    astrograph + CCD.
I52 Steward Observatory, Mt. Lemmon Station.  Observer J. A. Johnson.
    Measurers E. J. Christensen, D. C. Fuls, A. R. Gibbs, A. D. Grauer,
    J. A. Johnson, R. A. Kowalski, S. M. Larson, G. J. Leonard, R. G. Matheny,
    R. L. Seaman, F. C. Shelly.  1.0-m reflector + CCD.
 
Orbital elements:
2016 TY10                                                Earth MOID = 0.0819 AU
Epoch 2016 July 31.0 TT = JDT 2457600.5                 MPC
M 256.12423              (2000.0)            P               Q
n   0.77774200     Peri.  244.15890     +0.26499899     -0.96119861
a   1.1710596      Node   191.30669     +0.96363616     +0.26682530
e   0.1353985      Incl.   23.00855     +0.03436400     -0.07001060
P   1.27           H   24.0           G   0.15           U   7
Residuals in seconds of arc
161005 G96  0.1+  0.1+    161006 926  0.1-  0.1-    161007 807  0.1-  0.3-
161005 G96  0.8-  0.3+    161006 G96  0.2-  0.0     161007 807  0.2-  0.3-
161005 G96  1.1+  0.6+    161006 G96  0.0   0.3+    161007 807  0.1+  0.1-
161005 G96  1.0-  0.9-    161006 G96  0.1-  0.0     161007 G96  0.4-  0.3-
161005 G96  0.1+  0.1-    161006 G96  0.2-  0.1+    161007 G96  0.1-  0.3-
161005 G96  0.6+  0.1-    161006 G96  0.2-  0.4+    161007 G96  0.0   0.7+
161005 G96  0.2+  0.5+    161006 G96  0.0   0.1+    161007 G96  0.3+  0.0
161005 G96  0.3-  0.4-    161006 G96  0.2-  0.2+    161007 I52  1.3+  0.4-
161006 H21  0.3+  0.1-    161006 G96  0.9-  1.2-    161007 I52  0.8-  0.0
161006 H21  0.3+  0.2+    161006 G96  0.1+  0.3-    161007 291  0.1-  0.1+
161006 H21  0.4+  0.2+    161006 G96  0.4-  0.3+    161007 291  0.0   0.1+
161006 926  0.9+  0.1-    161006 G96  0.4-  0.2+    161007 291  0.0   0.1+
161006 926  0.0   0.1-    161006 G96  0.2+  0.1-

Ephemeris:
2016 TY10                a,e,i = 1.17, 0.14, 23                  q = 1.0125
Date    TT    R. A. (2000) Decl.     Delta      r     Elong.  Phase     V
2016 09 07    22 28 34.7 +52 07 56   0.2371  1.1490   121.3    48.5    23.0
...
2016 09 22    22 32 29.5 +37 41 49   0.1477  1.1167   137.3    37.6    21.6
...
2016 09 30    22 40 28.4 +18 53 34   0.1125  1.1000   149.6    27.4    20.7
...
2016 10 06    22 50 27.9 -02 24 43   0.1007  1.0879   149.8    27.5    20.4
2016 10 07    22 52 30.5 -06 17 32   0.1004  1.0859   148.1    29.1    20.5
2016 10 08    22 54 39.7 -10 10 10   0.1006  1.0840   146.0    31.0    20.5
...
2016 10 14    23 09 54.0 -31 21 40   0.1114  1.0726   130.2    45.3    21.1
...
2016 10 22    23 35 53.7 -50 06 01   0.1438  1.0585   112.5    60.3    22.1
...
2016 11 06    00 36 26.3 -64 58 11   0.2221  1.0362    95.4    72.2    23.3

A. U. Tomatic                (C) Copyright 2016 MPC           M.P.E.C. 2016-T64




More information about the Iaude mailing list